{"data":{"norad_id":58856,"intl_designator":"2024-019D","name":"STARLINK-31244","alt_names":[],"object_type":"PAYLOAD","status":"ACTIVE","operator":null,"country":"US","launch_date":"2024-01-29","launch_site_code":"AFETR","launch_vehicle":null,"mission":null,"orbit_class":"UNKNOWN","rcs_meters":null,"size_class":null,"mass_kg":null,"dimensions":null,"purposes":["comms"],"wikipedia_slug":null,"has_3d_model":false,"image_url":null,"decayed_at":null,"tle_current":{"epoch":"2026-09-20T06:47:06.468864Z","epoch_age_seconds":171365,"freshness":"FRESH","line1":"1 58856U 24019D   26263.28271376  .00000817  00000+0  39225-4 0  9993","line2":"2 58856  43.0014 229.8990 0001059 273.7547  86.3183 15.27578330148840","mean_motion":15.2757833,"eccentricity":0.0001059,"inclination_deg":43.0014,"raan_deg":229.899,"arg_perigee_deg":273.7547,"mean_anomaly_deg":86.3183,"bstar":3.9225e-5,"rev_number":14884,"period_min":94.266851769231,"perigee_km":482.32749648786,"apogee_km":483.78069676212,"semimajor_km":6861.191096625,"source":"CELESTRAK","updated_at":"2026-09-21T09:00:33.987657Z"}}}